Location: Unspecified
(44.0704°N, 88.6889°W)
Time: 19:41:03
(UTC+02:00)

Okean 3 - Pass Details

Date: 27 March 2019
Orbit: 578 x 600 km, 82.5° (Epoch: 14 October)

Event Time Altitude Azimuth Distance (km) Brightness Sun altitude
Exits shadow 09:56:53 - 133° (SE) 2,390 6.7 -29.0°
Reaches altitude 10° 09:58:35 10° 117° (ESE) 1,941 6.4 -28.7°
Maximum altitude 10:00:54 14° 84° (E) 1,674 6.4 -28.4°
Drops below altitude 10° 10:03:18 10° 51° (NE) 1,969 7.1 -28.0°
Sets 10:06:19 0° 28° (NNE) 2,859 7.9 -27.6°
